Regional Weather Roundup
Issued by NWS

Home | Current Version | Previous Version | Graphics & Text | Print | Product List | Glossary On
Versions: 1 2 3 4 5 6 7 8 9 10 11 12 13 14 15 16 17 18 19 20 21 22 23 24 25 26 27 28 29 30 31 32 33 34 35 36 37 38 39 40 41 42 43 44 45 46 47 48 49 50
000
ASUS43 KMPX 200401
RWRMN
WEATHER ROUNDUP FOR MINNESOTA
NATIONAL WEATHER SERVICE TWIN CITIES/CHANHASSEN MN
1000 PM CST THU JAN 19 2017


NOTE: "FAIR" INDICATES FEW OR NO CLOUDS BELOW 12,000 FEET WITH NO
SIGNIFICANT WEATHER AND/OR OBSTRUCTIONS TO VISIBILITY. N/A MEANS
CURRENT SKY AND/OR WEATHER CONDITIONS ARE NOT AVAILABLE.

MNZ060>063-068>070-200500-
   Twin Cities Metro

CITY           SKY/WX    TMP DP  RH WIND       PRES   REMARKS
TWIN CITIES    CLOUDY    37  31  78 E7        29.69F
ST PAUL        CLOUDY    36  34  92 CALM      29.70F
CRYSTAL        CLOUDY    37  30  75 SE5       29.69F
BLAINE         CLOUDY    37  34  87 CALM      29.69F
LAKEVILLE        N/A     32  32 100 E5        29.69S FOG     WCI  27
EDEN PRAIRIE   CLOUDY    36  31  82 NE5       29.67F
SOUTH ST PAUL  CLOUDY    36  34  92 CALM      29.70F FOG
LAKE ELMO      CLOUDY    36  34  93 E3        29.70F
$$
MNZ001>005-007-008-013>017-022>024-027-028-200500-
   Northwest Minnesota

CITY           SKY/WX    TMP DP  RH WIND       PRES   REMARKS
BEMIDJI        CLOUDY    36  36  99 S9        29.62R FOG
HALLOCK        FOG       32  32 100 S15       29.54S VSB 1/2 WCI  22
ROSEAU         HAZE      34  28  80 S5        29.56S VSB 1/2 WCI  30
WARROAD        FOG       28  25  86 S3        29.56F VSB 1/4
THIEF RVR FALL FOG       34  34 100 S16       29.58R VSB 1/2 WCI  24
CROOKSTON      FOG       34  34 100 S18       29.58S VSB 1   WCI  23
FOSSTON        CLOUDY    36  34  93 S13       29.59S FOG
DETROIT LAKES  FOG       34  34 100 S12       29.61F VSB 1/2 WCI  25
MOORHEAD       CLOUDY    34  34 100 S15       29.60S FOG     WCI  24
PARK RAPIDS    FOG       34  32  92 S10       29.62F VSB 1/2 WCI  26
MAHNOMEN       CLOUDY    34  34  99 S10G17    29.59S FOG     WCI  26
$$
MNZ006-009>011-018-025>026-200500-
   North Central Minnesota

CITY           SKY/WX    TMP DP  RH WIND       PRES   REMARKS
BAUDETTE       CLOUDY    34  32  92 S8        29.57F WCI  27
FLAG ISLAND    FOG       25  23  93 SE7       29.56S VSB<1/4 WCI  17
INTL FALLS     CLEAR     37  34  89 VRB5      29.61F FOG
WASKISH        MOCLDY    39  37  93 S6        29.60S
BIG FORK       CLOUDY    37  36  93 S7        29.64F FOG
LONGVILLE      CLEAR     36  34  93 CALM      29.64F FOG
GRAND RAPIDS   CLEAR     34  32  92 S6        29.67F WCI  29
CRANE LAKE     CLEAR     36  34  93 S3        29.67S FOG
ORR            CLEAR     36  32  87 S8        29.63S
COOK           CLEAR     37  34  87 S7        29.67S
WALKER         CLOUDY    36  34  95 S7        29.63F FOG
$$
MNZ012-019>021-037-200500-
   Northeast Minnesota

CITY           SKY/WX    TMP DP  RH WIND       PRES   REMARKS
DULUTH         CLOUDY    36  33  89 S8        29.70F
ELY            CLEAR     36  34  93 S8        29.68F
HIBBING        FOG       22  22 100 NW3       29.67F VSB<1/4
EVELETH        CLEAR     26  26  98 CALM      29.69F FOG
DULUTH HARBOR  CLOUDY    34  30  86 CALM      29.74S FOG
TWO HARBORS    MOCLDY    30  27  86 CALM      29.70F HAZE
SILVER BAY     CLEAR     25  25 100 CALM      29.71F FOG
GRAND MARAIS     N/A     29  28  96 NW3       29.74F
G MARAIS ARPRT FOG       28  25  86 NW3       29.71F VSB<1/4
$$
MNZ029>031-032-039>041-046>048-054>057-064-200500-
   West Central Minnesota

CITY           SKY/WX    TMP DP  RH WIND       PRES   REMARKS
FERGUS FALLS   FOG       36  36 100 S12       29.65F VSB 1/2
WHEATON        CLOUDY    41  41 100 SE10      29.62F FOG
MORRIS         FOG       36  34  93 SE13      29.61F VSB 1/4
ALEXANDRIA     FOG       34  34 100 SE9       29.63F VSB 3/4 WCI  27
ELBOW LAKE     SNOW      34  34 100 E12       29.62F VSB 1/2 WCI  25
WADENA         DRZL/FOG  34  34 100 SE7       29.63F VSB 1/4 WCI  28
GLENWOOD       FOG       34  34 100 SE12      29.64F VSB 1/2 WCI  25
APPLETON       CLOUDY    36  34  93 SE10      29.62F FOG
BENSON         CLOUDY    37  34  87 S7          N/A
ORTONVILLE     FOG       36  32  87 SE9       29.61S VSB 3/4
MADISON        CLOUDY    37  37 100 SE13      29.61F FOG
WILLMAR        CLOUDY    36  36 100 E6        29.65F FOG
$$
MNZ033>034-036-042>043-049>051-058-059-200500-
   Central Minnesota

CITY           SKY/WX    TMP DP  RH WIND       PRES   REMARKS
ST CLOUD       CLOUDY    36  33  89 SE6       29.68F
SAUK CENTRE    CLOUDY    33  32  96 E7        29.65F WCI  27
PAYNESVILLE    CLOUDY    35  35 100 CALM      29.66F
AITKIN         CLOUDY    37  30  75 SE9       29.66S
PINE RIVER     CLEAR     34  34 100 S5        29.69F FOG     WCI  30
BRAINERD       CLOUDY    36  33  89 S8        29.66F FOG
STAPLES        CLOUDY    34  34 100 SE3       29.65F FOG
LONG PRAIRIE   CLOUDY    32  32 100 E9        29.66F FOG     WCI  24
LITTLE FALLS   CLOUDY    34  32  93 SE3       29.68F
LITCHFIELD     CLOUDY    36  34  93 E3        29.67F
BUFFALO        CLOUDY    36  32  87 E5        29.69F
MAPLE LAKE     CLOUDY    37  34  90 CALM      29.69S
HUTCHINSON     CLOUDY    35  34  95 SE3       29.67F
$$
MNZ037-044-045-052-053-200500-
   East Central Minnesota

CITY           SKY/WX    TMP DP  RH WIND       PRES   REMARKS
PRINCETON      CLOUDY    36  32  87 E5        29.70F
MORA           CLOUDY    34  30  86 SE3       29.72F
CAMBRIDGE      CLOUDY    37  30  75 E5        29.70S
RUSH CITY      CLOUDY    36  32  87 CALM      29.71F
MOOSE LAKE     CLOUDY    36  32  87 CALM      29.69F
HINCKLEY       CLOUDY    37  32  81 CALM      29.71F
CLOQUET        CLOUDY    34  30  86 SE3       29.70S FOG
MCGREGOR       CLOUDY    36  32  87 S7        29.68S
$$
MNZ071>073-080-081-089-090-097-098-200500-
   Southwest Minnesota

CITY           SKY/WX    TMP DP  RH WIND       PRES   REMARKS
MONTEVIDEO     FOG       34  34 100 S8        29.64F VSB 1   WCI  27
GRANITE FALLS  CLOUDY    37  36  98 E6        29.65F FOG
CANBY          CLOUDY    36  36  99 CALM      29.61F FOG
MARSHALL       CLOUDY    35  34  96 SE6       29.61F FOG     WCI  30
REDWOOD FALLS  CLOUDY    35  33  92 SE3       29.64F FOG
OLIVIA         CLOUDY    34  32  93 SE5       29.64F WCI  30
PIPESTONE      FOG       36  36 100 SE9       29.59F VSB 1/4
WINDOM         CLOUDY    36  36 100 S7        29.63F FOG
WORTHINGTON    FOG       34  34 100 SE9       29.63F VSB 1/2 WCI  26
JACKSON        FOG       32  32 100 S6        29.64F VSB 1/2 WCI  26
TRACY          PTCLDY    36  36  99 E8        29.62F FOG
SLAYTON        FOG       34  34 100 SE9       29.62F VSB 1/2 WCI  26
$$
MNZ065>067-074>077-082>085-091>093-200500-
   South Central Minnesota

CITY           SKY/WX    TMP DP  RH WIND       PRES   REMARKS
MANKATO        MIX PCPN  35  34  96 S5        29.67F FOG     WCI  31
NEW ULM        CLOUDY    34  34 100 SE7       29.66F FOG     WCI  28
ST JAMES       CLOUDY    34  34 100 SE6       29.67S FOG     WCI  29
FAIRMONT       FOG       34  33  96 S6        29.66F VSB 1/2 WCI  29
GLENCOE        CLOUDY    35  36 100 E6        29.66F FOG     WCI  30
FARIBAULT        N/A     36  34  93 E3        29.69S FOG
OWATONNA       CLOUDY    36  34  93 SE8       29.68S FOG
WASECA         CLOUDY    34  34 100 SE10      29.68S FOG     WCI  26
ALBERT LEA     FOG       36  36 100 SE6       29.67F VSB 1/4
$$
MNZ078>079-086>088-094>096-200500-
   Southeast Minnesota

CITY           SKY/WX    TMP DP  RH WIND       PRES   REMARKS
ROCHESTER      CLOUDY    33  33 100 SE9       29.69S FOG     WCI  25
RED WING       CLOUDY    37  34  87 SE7       29.71F
STANTON        CLOUDY    37  32  85 CALM      29.69S
DODGE CENTER   CLOUDY    34  34 100 CALM      29.68F FOG
WINONA         CLOUDY    34  34 100 S3        29.74F FOG
AUSTIN         RAIN      34  32  93 SE5       29.68F VSB 1/2 WCI  30
PRESTON        LGT RAIN  33  32  96 SE3       29.70S
$$
ABBREVIATIONS USED IN REMARKS
   TC - TEMPERATURES IN CELSIUS
  WCI - WIND CHILL INDEX
   HX - HEAT INDEX
  VSB - VISIBILITY
$$




USA.gov is the U.S. government's official web portal to all federal, state and local government web resources and services.